Weather History for Fort Sevcenko, Kazakhstan

Change the Weather History Date:

Tuesday, February 5, 2013

  Actual Average Record
Temperature  
Mean Temperature 40 °F -  
Max Temperature 44 °F - - ()
Min Temperature 35 °F - - ()
Degree Days  
Heating Degree Days 26    
Moisture  
Dew Point 34 °F    
Average Humidity 85    
Maximum Humidity 93    
Minimum Humidity 72    
Precipitation  
Precipitation 0.00 in - - ()
Sea Level Pressure  
Sea Level Pressure 30.07 in    
Wind  
Wind Speed 16 mph ()    
Max Wind Speed 31 mph    
Max Gust Speed 38 mph    
Visibility 6.2 miles    
Events      
T = Trace of Precipitation, MM = Missing Value Source: Averaged Metar Reports

Daily Weather History Graph

Daily Weather History Graph

Search for Another Location

Airport:

Trip Planner

Search our weather history database for the weather conditions in past years. The results will help you decide how hot, cold, wet, or windy it might be!

Date:

Astronomy

Feb. 05, 2013 Rise Set
Actual Time 8:48 AM AQTT 6:51 PM AQTT
Civil Twilight 8:17 AM AQTT 7:22 PM AQTT
Nautical Twilight 7:43 AM AQTT 7:56 PM AQTT
Astronomical Twilight 7:10 AM AQTT 8:29 PM AQTT
Moon 4:07 AM AQTT (2/5) 1:43 PM AQTT (2/5)
Length of Visible Light 11h 04m
Length of Day
10h 03m
Waning Crescent, 31% of the Moon is Illuminated
Feb 5
Waning Crescent
Feb 10
New
Feb 18
First Quarter
Feb 26
Full
Mar 5
Last Quarter

Hourly Weather History & Observations

Time (AQTT) Temp. Windchill Dew Point Humidity Pressure Visibility Wind Dir Wind Speed Gust Speed Precip Events Conditions
12:00 AM 35.6 °F 24.7 °F 33.8 °F 93% 30.24 in 6.2 mi ESE 20.1 mph - N/A   Overcast
12:30 AM 35.6 °F 26.8 °F 33.8 °F 93% 30.24 in 6.2 mi ESE 13.4 mph - N/A   Overcast
1:00 AM 35.6 °F 26.8 °F 33.8 °F 93% 30.24 in 6.2 mi ESE 13.4 mph - N/A   Mostly Cloudy
1:30 AM 33.8 °F 25.4 °F 32.0 °F 93% 30.24 in 6.2 mi ESE 11.2 mph - N/A   Scattered Clouds
2:00 AM 36 °F - 32 °F 78% 30.17 in 6 mi NE 17.9 mph - -   Overcast
2:00 AM 33.8 °F 25.4 °F 32.0 °F 93% 30.24 in 6.2 mi ESE 11.2 mph - N/A   Scattered Clouds
2:30 AM 33.8 °F 25.4 °F 32.0 °F 93% 30.21 in 6.2 mi ESE 11.2 mph - N/A   Scattered Clouds
3:00 AM 33.8 °F 24.5 °F 32.0 °F 93% 30.21 in 6.2 mi ESE 13.4 mph - N/A   Mostly Cloudy
3:30 AM 33.8 °F 24.5 °F 32.0 °F 93% 30.21 in 6.2 mi ESE 13.4 mph - N/A   Mostly Cloudy
4:00 AM 33.8 °F 24.5 °F 32.0 °F 93% 30.18 in 6.2 mi SE 13.4 mph - N/A   Scattered Clouds
4:30 AM 33.8 °F 24.5 °F 32.0 °F 93% 30.18 in 6.2 mi SE 13.4 mph - N/A   Mostly Cloudy
5:00 AM 37 °F - 31 °F 72% 30.14 in 6 mi NE 17.9 mph - -   Overcast
5:00 AM 33.8 °F 24.5 °F 32.0 °F 93% 30.18 in 6.2 mi ESE 13.4 mph - N/A   Mostly Cloudy
5:30 AM 33.8 °F 24.5 °F 32.0 °F 93% 30.18 in 6.2 mi ESE 13.4 mph - N/A   Mostly Cloudy
6:00 AM 33.8 °F 23.7 °F 32.0 °F 93% 30.15 in 6.2 mi ESE 15.7 mph - N/A   Mostly Cloudy
6:30 AM 33.8 °F 23.7 °F 30.2 °F 87% 30.15 in 6.2 mi ESE 15.7 mph - N/A   Scattered Clouds
7:00 AM 33.8 °F 23.7 °F 30.2 °F 87% 30.12 in 6.2 mi ESE 15.7 mph - N/A   Scattered Clouds
7:30 AM 33.8 °F 23.7 °F 30.2 °F 87% 30.12 in - ESE 15.7 mph - N/A   Clear
8:00 AM 37 °F - 32 °F 77% 30.10 in 6 mi NE 22.4 mph - -   Overcast
8:00 AM 33.8 °F 23.7 °F 30.2 °F 87% 30.12 in - ESE 15.7 mph - N/A   Clear
8:30 AM 33.8 °F 23.7 °F 30.2 °F 87% 30.12 in - ESE 15.7 mph - N/A   Clear
9:00 AM 33.8 °F 23.7 °F 30.2 °F 87% 30.12 in - ESE 15.7 mph - N/A   Clear
9:30 AM 33.8 °F 23.0 °F 30.2 °F 87% 30.12 in - ESE 17.9 mph - N/A   Clear
10:00 AM 33.8 °F 23.0 °F 30.2 °F 87% 30.12 in - ESE 17.9 mph - N/A   Clear
10:30 AM 33.8 °F 23.0 °F 32.0 °F 93% 30.09 in - ESE 17.9 mph - N/A   Clear
11:00 AM 37 °F - 33 °F 79% 30.00 in 6 mi NE 31.3 mph - -   Clear
11:00 AM 35.6 °F 24.7 °F 32.0 °F 87% 30.09 in - ESE 20.1 mph - N/A   Clear
11:30 AM 37.4 °F 27.0 °F 33.8 °F 87% 30.09 in - ESE 20.1 mph - N/A   Clear
12:00 PM 39.2 °F 28.4 °F 33.8 °F 81% 30.06 in - SE 24.6 mph - N/A   Clear
12:30 PM 39.2 °F 27.6 °F 35.6 °F 87% 30.06 in 6.2 mi SE 29.1 mph - N/A   Mostly Cloudy
1:00 PM 37.4 °F 25.5 °F 35.6 °F 93% 30.04 in 6.2 mi SE 26.8 mph 38.0 mph N/A   Mostly Cloudy
1:30 PM 39.2 °F 27.6 °F 35.6 °F 87% 30.01 in 6.2 mi SE 29.1 mph - N/A   Mostly Cloudy
2:00 PM 41 °F - 36 °F 75% 29.94 in 6 mi NE 31.3 mph - -   Clear
2:00 PM 39.2 °F 28.0 °F 37.4 °F 93% 30.01 in 6.2 mi SE 26.8 mph - N/A   Mostly Cloudy
2:30 PM 41.0 °F 30.4 °F 37.4 °F 87% 29.98 in 6.2 mi SE 26.8 mph - N/A   Mostly Cloudy
3:00 PM 41.0 °F 30.4 °F 37.4 °F 87% 29.98 in 6.2 mi SE 26.8 mph - N/A   Mostly Cloudy
3:30 PM 42.8 °F 33.2 °F 37.4 °F 81% 29.95 in 6.2 mi SE 24.6 mph - N/A   Mostly Cloudy
4:00 PM 42.8 °F 33.2 °F 37.4 °F 81% 29.95 in 6.2 mi SE 24.6 mph - N/A   Mostly Cloudy
4:30 PM 44.6 °F 36.0 °F 39.2 °F 81% 29.95 in - SE 22.4 mph - N/A   Clear
5:00 PM 44 °F - 38 °F 72% 29.88 in 6 mi NE 31.3 mph - -   Clear
5:00 PM 44.6 °F 35.6 °F 39.2 °F 81% 29.95 in - SE 24.6 mph - N/A   Clear
5:30 PM 44.6 °F 35.6 °F 37.4 °F 76% 29.95 in - SE 24.6 mph - N/A   Clear
6:00 PM 44.6 °F 35.2 °F 37.4 °F 76% 29.95 in - SE 26.8 mph 38.0 mph N/A   Clear
6:30 PM 42.8 °F 33.2 °F 37.4 °F 81% 29.95 in - SE 24.6 mph 35.8 mph N/A   Clear
7:00 PM 42.8 °F 33.2 °F 35.6 °F 76% 29.95 in - SE 24.6 mph - N/A   Clear
7:30 PM 42.8 °F 34.1 °F 35.6 °F 76% 29.95 in - SE 20.1 mph - N/A   Clear
8:00 PM 42 °F - 37 °F 78% 29.98 in 6 mi North 13.4 mph - -   Mostly Cloudy
8:00 PM 41.0 °F 32.3 °F 35.6 °F 81% 29.95 in - SE 17.9 mph - N/A   Clear
8:30 PM 41.0 °F 32.9 °F 35.6 °F 81% 29.98 in - SE 15.7 mph - N/A   Clear
9:00 PM 41.0 °F 32.9 °F 35.6 °F 81% 29.98 in - SE 15.7 mph - N/A   Clear
9:30 PM 39.2 °F 32.2 °F 35.6 °F 87% 30.01 in - SE 11.2 mph - N/A   Clear
10:00 PM 39.2 °F 33.1 °F 35.6 °F 87% 30.01 in - SE 8.9 mph - N/A   Clear
10:30 PM 37.4 °F 30.9 °F 33.8 °F 87% 30.04 in - SE 8.9 mph - N/A   Clear
11:00 PM 43 °F - 38 °F 76% 29.95 in 6 mi NE 11.2 mph - -   Overcast
11:00 PM 37.4 °F 32.2 °F 35.6 °F 93% 30.04 in 6.2 mi SE 6.7 mph - N/A   Mostly Cloudy
11:30 PM 39.2 °F 36.0 °F 35.6 °F 87% 30.04 in 6.2 mi ENE 4.5 mph - N/A   Mostly Cloudy